This is the latest recevied weather packets stored in our database for station/object CE1RLP-31. If no packets are shown the sender has not sent any weather packets the latest 10 day(s).
| Time | Temp. | Humidity | Pressure | Rain* | Wind** | Luminosity | Snow |
|---|---|---|---|---|---|---|---|
| 1777610253 | 5.56° C | 16% | 1098.5 hPa | - | - | - | - |
| 1777609353 | 5.56° C | 14% | 1098.5 hPa | - | - | - | - |
| 1777608453 | 5.56° C | 11% | 1098.5 hPa | - | - | - | - |
| 1777607554 | 5.56° C | 13% | 1098.5 hPa | - | - | - | - |
| 1777606654 | 5.56° C | 12% | 1098.5 hPa | - | - | - | - |
| 1777605754 | 5.56° C | 12% | 1098.5 hPa | - | - | - | - |
| 1777604854 | 5.56° C | 12% | 1098.4 hPa | - | - | - | - |
| 1777603954 | 5.56° C | 11% | 1098.5 hPa | - | - | - | - |
| 1777603054 | 5.56° C | 11% | 1098.5 hPa | - | - | - | - |
| 1777602154 | 6.11° C | 9% | 1098.4 hPa | - | - | - | - |
| 1777601254 | 6.11° C | 10% | 1098.5 hPa | - | - | - | - |
| 1777600354 | 6.11° C | 10% | 1098.5 hPa | - | - | - | - |
| 1777599454 | 6.11° C | 10% | 1098.4 hPa | - | - | - | - |
| 1777598553 | 6.11° C | 10% | 1098.4 hPa | - | - | - | - |
| 1777597653 | 6.11° C | 10% | 1098.2 hPa | - | - | - | - |
| 1777596753 | 6.11° C | 10% | 1098 hPa | - | - | - | - |
| 1777595853 | 6.67° C | 11% | 1097.9 hPa | - | - | - | - |
| 1777594953 | 6.67° C | 11% | 1097.6 hPa | - | - | - | - |
| 1777594053 | 6.67° C | 11% | 1097.5 hPa | - | - | - | - |
| 1777593153 | 7.22° C | 13% | 1098.7 hPa | - | - | - | - |
| 1777592253 | 7.22° C | 13% | 1097.3 hPa | - | - | - | - |
| 1777591392 | 7.78° C | 13% | 1097.3 hPa | - | - | - | - |
| 1777591353 | 7.78° C | 13% | 1097.3 hPa | - | - | - | - |
| 1777590452 | 8.33° C | 12% | 1097.3 hPa | - | - | - | - |
| 1777589553 | 8.89° C | 13% | 1097.1 hPa | - | - | - | - |
* Rain since midnight (hover to see other rain measurements)
** Current wind speed in m/s (hover to see current wind gust speed)